sat.trackr.live / text

‹ back to catalog

STARLINK-4567

NORAD 53970 · 2022-125G

PAYLOAD ACTIVE UNKNOWN

§ Identity

Operator
Country
US
Launch date
2022-10-05
Launch site
AFWTR
Launch vehicle
Mass (kg)
RCS (m²)

Purposes: comms

External: N2YO · Heavens-Above · Gunter

§ Orbital elements

Epoch: 2026-09-20T14:05:38.574528Z

Period
93.79 min
Inclination
53.1600°
Eccentricity
0.0001228
Mean motion
15.35394100 rev/d
Perigee alt
458.9 km
Apogee alt
460.6 km
Semi-major
6,837.9 km
B*
1.6587e-5
RAAN
51.7275°
Arg perigee
94.6042°
Mean anomaly
265.5101°
Rev number
21,899

§ Raw data

STARLINK-45671 53970U 22125G   26263.58725202  .00000198  00000+0  16587-4 0  99942 53970  53.1600  51.7275 0001228  94.6042 265.5101 15.35394100218996

JSON: /api/v1/satellites/53970 · /tle

For live sub-satellite position, see the globe view (requires WebGL).

§ Visibility from observer

Set your observer location to see the next 7 days of passes ≥ 10°. The values pass through the URL so the page stays shareable.

No JS? Fill the form by hand. The geolocation button needs JavaScript.